Find OneWeb SL0716

NORAD ID: 55177 Int'l Des: 2023-004 Owner: ONEWEBN Country: UK Constellation: oneweb operational
LEOCIRCULARPOLARONEWEB_TYPE

Live Position

Loading 3D Globe...

About OneWeb SL0716

Description loading...

Upcoming Passes

Passes for default location (London). Set your location on the main map for personalized predictions.

Altitude History

Loading altitude history...

Two-Line Element Set

1 55177U 23004AP 26107.14434148 -.00000009 00000-0 -57079-4 0 9992
2 55177 87.9184 17.9943 0002129 80.7571 279.3802 13.17647435159545
Epoch: Apr 17, 2026 • Age: 10 hours

Current Status

Altitude 1209.5 km
Velocity 7.25 km/s
Sub-Earth Point -38.25°S, 148.65°E
Launch Date Jan 10, 2023
Age 3.2 years
Type internet

Technical Details

Classification Payload
Mass 148.00 kg
Dry Mass 140.00 kg
Total Mass 148.00 kg
Length 1.30 m
Diameter 1.00 m
Span 5.00 m
Shape Trapezoid+2 pan
Manufacturer ONEWUS
Bus Type ARROW
Phase Status In Orbit
Owner/State ONEWEBN/UK

Most Searched